Location: Gajan
(43.0218°N, 1.1244°E)
Time: 15:21:58
(UTC+00:00)

Cosmos 2360 Rocket - Pass Details

Date: 22 April 2021
Orbit: 833 x 845 km, 71.0° (Epoch: 13 May)

Event Time Altitude Azimuth Distance (km) Brightness Sun altitude
Rises 19:32:13 0° 323° (NW) 3,407 6.6 -8.6°
Reaches altitude 10° 19:35:07 10° 309° (NW) 2,466 6.1 -9.1°
Maximum altitude 19:39:27 23° 259° (W) 1,709 4.5 -9.8°
Drops below altitude 10° 19:43:46 10° 208° (SSW) 2,446 4.6 -10.5°
Sets 19:46:39 0° 195° (SSW) 3,373 5.2 -10.9°
